Volver al catálogo

FENGYUN 1C DEB

LostPO
NORAD 32438·DEBRIS·🇨🇳 China

Lanzado May 10, 1999 desde Taiyuan Satellite Launch Center

Loading…

Próximos Pases (próximas 24 horas)

TLE

ObsoletoSource: Space-Track

Época: Jun 9, 2026, 07:57 UTC

1 32438U 99025DBA 26160.33127825  .00099210  00000-0  45019-2 0  9993
2 32438  99.3920 196.6709 0004612 312.6970  47.3870 15.20359252991713

Sigue FENGYUN 1C DEB en tiempo real con AllMySat

Download on the App Store